Weather History for Point Lay, AK

Change the Weather History Date:

Thursday, March 21, 2013

  Actual Average Record
Temperature  
Mean Temperature -20 °F -  
Max Temperature -13 °F 0 °F 33 °F (1998)
Min Temperature -26 °F -10 °F -38 °F (2012)
Degree Days  
Heating Degree Days 84    
Moisture  
Dew Point -22 °F    
Average Humidity 76    
Maximum Humidity 84    
Minimum Humidity 69    
Precipitation  
Precipitation 0.00 in - - ()
Sea Level Pressure  
Sea Level Pressure 30.14 in    
Wind  
Wind Speed 2 mph (NE)    
Max Wind Speed 17 mph    
Max Gust Speed -    
Visibility 6 miles    
Events Snow    
Averages and records for this station are not official NWS values.
T = Trace of Precipitation, MM = Missing Value Source: NWS Daily Summary

Daily Weather History Graph

Daily Weather History Graph

Search for Another Location

Airport:

Trip Planner

Search our weather history database for the weather conditions in past years. The results will help you decide how hot, cold, wet, or windy it might be!

Date:

Astronomy

Mar. 21, 2013 Rise Set
Actual Time 8:44 AM AKDT 9:16 PM AKDT
Civil Twilight 7:43 AM AKDT 10:17 PM AKDT
Nautical Twilight 6:25 AM AKDT 11:36 PM AKDT
Astronomical Twilight 4:35 AM AKDT 1:31 AM AKDT
Moon 1:07 PM AKDT (3/21) 8:09 AM AKDT (3/21)
Length of Visible Light 14h 33m
Length of Day
12h 31m
Waxing Gibbous, 70% of the Moon is Illuminated
Mar 21
Waxing Gibbous
Mar 27
Full
Apr 2
Last Quarter
Apr 10
New
Apr 18
First Quarter

Hourly Weather History & Observations

Time (AKDT) Temp. Windchill Dew Point Humidity Pressure Visibility Wind Dir Wind Speed Gust Speed Precip Events Conditions
12:20 AM -14.8 °F - -18.4 °F 84% 30.05 in 6.0 mi Calm Calm - N/A   Haze
12:37 AM -14.8 °F -24.8 °F -20.2 °F 77% 30.05 in 5.0 mi NNE 3.5 mph - N/A   Haze
12:56 AM -14.8 °F - -20.2 °F 77% 30.06 in 5.0 mi Calm Calm - N/A   Haze
1:15 AM -14.8 °F - -20.2 °F 77% 30.06 in 7.0 mi Calm Calm - N/A   Mostly Cloudy
1:30 AM -14.8 °F - -20.2 °F 77% 30.06 in 8.0 mi Calm Calm - N/A   Partly Cloudy
1:56 AM -15.0 °F - -19.8 °F 79% 30.08 in 7.0 mi Calm Calm - N/A   Scattered Clouds
2:04 AM -14.8 °F - -20.2 °F 77% 30.07 in 2.5 mi Calm Calm - 0.00 in Snow Light Snow
2:09 AM -14.8 °F - -20.2 °F 77% 30.07 in 3.0 mi Calm Calm - 0.00 in Snow Light Snow
2:24 AM -14.8 °F - -20.2 °F 77% 30.07 in 6.0 mi Calm Calm - 0.00 in   Haze
2:56 AM -13.9 °F - -18.9 °F 78% 30.09 in 4.0 mi Calm Calm - 0.00 in   Haze
3:47 AM -14.8 °F - -20.2 °F 77% 30.07 in 2.5 mi Calm Calm - N/A   Haze
3:56 AM -14.8 °F - -20.2 °F 77% 30.07 in 2.5 mi Calm Calm - N/A   Haze
4:19 AM -14.8 °F - -20.2 °F 77% 30.08 in 3.0 mi Calm Calm - N/A   Haze
4:56 AM -15.9 °F - -20.9 °F 78% 30.09 in 6.0 mi Calm Calm - N/A   Haze
5:56 AM -13.9 °F - -19.8 °F 75% 30.10 in 4.0 mi Calm Calm - N/A   Haze
6:33 AM -16.6 °F - -20.2 °F 84% 30.09 in 2.5 mi Calm Calm - N/A   Haze
6:41 AM -16.6 °F - -20.2 °F 84% 30.09 in 4.0 mi Calm Calm - N/A   Haze
6:49 AM -16.6 °F - -20.2 °F 84% 30.09 in 4.0 mi Calm Calm - N/A   Haze
6:56 AM -16.6 °F - -20.2 °F 84% 30.09 in 4.0 mi Calm Calm - N/A   Haze
7:11 AM -16.6 °F - -20.2 °F 84% 30.09 in 5.0 mi Calm Calm - N/A   Haze
7:19 AM -16.6 °F - -20.2 °F 84% 30.09 in 8.0 mi Calm Calm - N/A   Scattered Clouds
7:56 AM -15.9 °F -28.4 °F -20.9 °F 78% 30.11 in 10.0 mi North 4.6 mph - N/A   Partly Cloudy
8:56 AM -15.9 °F - -22.0 °F 74% 30.12 in 7.0 mi Calm Calm - N/A   Scattered Clouds
9:56 AM -15.9 °F - -20.9 °F 78% 30.13 in 10.0 mi Calm Calm - N/A   Clear
10:56 AM -17.9 °F - -22.9 °F 78% 30.13 in 10.0 mi Calm Calm - N/A   Partly Cloudy
11:29 AM -14.8 °F - -20.2 °F 77% 30.12 in 10.0 mi Calm Calm - N/A   Mostly Cloudy
11:56 AM -13.9 °F - -19.8 °F 75% 30.14 in 10.0 mi Calm Calm - N/A   Mostly Cloudy
12:18 PM -13.0 °F - -18.4 °F 77% 30.13 in 10.0 mi Calm Calm - N/A   Overcast
12:28 PM -13.0 °F -27.0 °F -18.4 °F 77% 30.14 in 10.0 mi NE 5.8 mph - N/A   Overcast
12:56 PM -13.0 °F -27.0 °F -18.4 °F 77% 30.14 in 3.0 mi NE 5.8 mph - N/A Snow Light Snow
1:01 PM -13.0 °F -27.0 °F -18.4 °F 77% 30.14 in 1.8 mi NE 5.8 mph - 0.00 in Snow Light Snow
1:05 PM -13.0 °F -25.1 °F -18.4 °F 77% 30.14 in 1.2 mi NE 4.6 mph - 0.00 in Snow Light Snow
1:19 PM -13.0 °F - -18.4 °F 77% 30.14 in 1.8 mi Calm Calm - 0.00 in Snow Light Snow
1:29 PM -13.0 °F -30.0 °F -18.4 °F 77% 30.15 in 3.0 mi NE 8.1 mph - 0.00 in Snow Light Snow
1:38 PM -13.0 °F -30.0 °F -18.4 °F 77% 30.15 in 1.8 mi NNE 8.1 mph - 0.00 in Snow Light Snow
1:44 PM -13.0 °F -27.0 °F -18.4 °F 77% 30.15 in 2.0 mi NNE 5.8 mph - 0.00 in Snow Light Snow
1:56 PM -13.0 °F -30.0 °F -17.9 °F 79% 30.17 in 5.0 mi NNE 8.1 mph - 0.00 in   Haze
2:56 PM -13.0 °F - -18.9 °F 75% 30.18 in 10.0 mi Calm Calm - N/A   Clear
3:56 PM -17.0 °F -39.3 °F -22.9 °F 74% 30.20 in 10.0 mi NE 12.7 mph - N/A   Clear
4:06 PM -18.4 °F -42.9 °F -25.6 °F 70% 30.18 in 10.0 mi NE 15.0 mph - N/A   Scattered Clouds
4:31 PM -20.2 °F -46.8 °F -27.4 °F 69% 30.19 in 5.0 mi NE 17.3 mph - N/A   Haze
4:46 PM -20.2 °F -45.2 °F -27.4 °F 69% 30.20 in 5.0 mi NE 15.0 mph - N/A   Haze
4:56 PM -20.9 °F -47.0 °F -27.9 °F 70% 30.21 in 6.0 mi NE 16.1 mph - N/A   Haze
5:56 PM -20.9 °F -45.3 °F -27.9 °F 70% 30.24 in 7.0 mi NE 13.8 mph - N/A   Clear
6:56 PM -20.9 °F -46.2 °F -27.9 °F 70% 30.25 in 10.0 mi ENE 15.0 mph - N/A   Clear
7:56 PM -22.9 °F -43.4 °F -29.9 °F 70% 30.27 in 10.0 mi NE 9.2 mph - N/A   Clear
8:56 PM -26.0 °F -47.2 °F -31.9 °F 73% 30.28 in 10.0 mi North 9.2 mph - N/A   Clear
9:56 PM -26.9 °F -50.8 °F -33.0 °F 73% 30.30 in 10.0 mi NNE 11.5 mph - N/A   Clear
10:56 PM -26.9 °F - -33.0 °F 73% 30.30 in 10.0 mi Calm Calm - N/A   Clear
11:56 PM -26.9 °F - -33.9 °F 69% 30.31 in 10.0 mi Calm Calm - N/A   Clear